• In Hungary
  • List of Countries
  • For 7 days
  • Water Temperature
  • Satellite Maps
  • Weather Map
  • News
  • Weather Widgets
  • user-avatar
    Login

    Hourly Weather Kiustendil

    Today, 23 February, Friday

    Time Temperature Precipitation Wind Pressure Humidity
    00:00 -3°C° 0 mm 1 mps 619 mmHg 90%
    01:00 -3°C° 0 mm 1 mps 619 mmHg 90%
    02:00 -4°C° 0 mm 1 mps 618 mmHg 90%
    03:00 -4°C° 0 mm 1 mps 618 mmHg 90%
    04:00 -4°C° 0 mm 1 mps 618 mmHg 90%
    05:00 -4°C° 0 mm 1 mps 618 mmHg 89%
    06:00 -3°C° 0 mm 1 mps 619 mmHg 87%
    07:00 -2°C° 0 mm 1 mps 619 mmHg 86%
    08:00 -3°C° 0 mm 2 mps 620 mmHg 82%
    09:00 -2°C° 0 mm 2 mps 620 mmHg 78%
    10:00 -1°C° 0 mm 2 mps 621 mmHg 74%
    11:00 +1°C° 0 mm 2 mps 621 mmHg 71%
    12:00 +1°C° 0 mm 2 mps 621 mmHg 68%
    13:00 +1°C° 0 mm 3 mps 621 mmHg 68%
    14:00 +1°C° 0 mm 3 mps 621 mmHg 69%
    15:00 +1°C° 0 mm 2 mps 621 mmHg 70%
    16:00 +1°C° 0 mm 2 mps 620 mmHg 71%
    17:00 -1°C° 0 mm 2 mps 620 mmHg 76%
    18:00 -2°C° 0 mm 2 mps 620 mmHg 81%
    19:00 -1°C° 0 mm 1 mps 620 mmHg 86%
    20:00 -1°C° 0 mm 1 mps 619 mmHg 87%
    21:00 -2°C° 0 mm 1 mps 619 mmHg 89%
    22:00 -2°C° 0 mm 1 mps 619 mmHg 90%
    23:00 -3°C° 0 mm 1 mps 619 mmHg 91%

    Tomorrow, 24 February, Saturday

    Time Temperature Precipitation Wind Pressure Humidity
    00:00 -3°C° 0 mm 1 mps 618 mmHg 91%
    01:00 -3°C° 0 mm 1 mps 618 mmHg 92%
    02:00 -3°C° 0 mm 1 mps 618 mmHg 91%
    03:00 -3°C° 0 mm 1 mps 618 mmHg 90%
    04:00 -3°C° 0 mm 1 mps 618 mmHg 89%
    05:00 -3°C° 0 mm 1 mps 618 mmHg 88%
    06:00 -3°C° 0 mm 1 mps 617 mmHg 88%
    07:00 -3°C° 0 mm 1 mps 617 mmHg 87%
    08:00 -2°C° 0 mm 1 mps 618 mmHg 82%
    09:00 -1°C° 0 mm 1 mps 618 mmHg 76%
    10:00 +1°C° 0 mm 1 mps 618 mmHg 71%
    11:00 +1°C° 0 mm 1 mps 618 mmHg 70%
    12:00 -1°C° 0 mm 2 mps 618 mmHg 69%
    13:00 +1°C° 0 mm 2 mps 618 mmHg 68%
    14:00 -1°C° 0.1 mm 2 mps 618 mmHg 69%
    15:00 -1°C° 0.1 mm 2 mps 618 mmHg 71%
    16:00 -1°C° 0.1 mm 2 mps 617 mmHg 73%
    17:00 -2°C° 0 mm 2 mps 617 mmHg 76%
    18:00 -4°C° 0 mm 3 mps 617 mmHg 80%
    19:00 -5°C° 0 mm 3 mps 617 mmHg 83%
    20:00 -5°C° 0 mm 3 mps 617 mmHg 83%
    21:00 -6°C° 0 mm 3 mps 617 mmHg 83%
    22:00 -6°C° 0 mm 3 mps 617 mmHg 83%
    23:00 -7°C° 0.1 mm 3 mps 617 mmHg 82%

    Day after tomorrow, 25 February, Sunday

    Time Temperature Precipitation Wind Pressure Humidity
    00:00 -8°C° 0.1 mm 3 mps 617 mmHg 81%
    01:00 -8°C° 0.1 mm 3 mps 617 mmHg 80%
    02:00 -9°C° 0 mm 3 mps 617 mmHg 79%
    03:00 -9°C° 0 mm 3 mps 617 mmHg 79%
    04:00 -10°C° 0 mm 3 mps 617 mmHg 78%
    05:00 -10°C° 0 mm 3 mps 617 mmHg 76%
    06:00 -10°C° 0 mm 3 mps 617 mmHg 75%
    07:00 -9°C° 0 mm 2 mps 617 mmHg 73%
    08:00 -8°C° 0.1 mm 2 mps 618 mmHg 70%
    09:00 -8°C° 0.1 mm 2 mps 618 mmHg 68%
    10:00 -8°C° 0.1 mm 3 mps 619 mmHg 65%
    11:00 -7°C° 0.2 mm 2 mps 618 mmHg 66%
    12:00 -7°C° 0.2 mm 2 mps 618 mmHg 67%
    13:00 -6°C° 0.2 mm 2 mps 618 mmHg 68%
    14:00 -7°C° 0.3 mm 2 mps 618 mmHg 71%
    15:00 -7°C° 0.3 mm 2 mps 618 mmHg 73%
    16:00 -7°C° 0.3 mm 2 mps 618 mmHg 76%
    17:00 -8°C° 0.5 mm 2 mps 617 mmHg 80%
    18:00 -8°C° 0.5 mm 2 mps 617 mmHg 83%
    19:00 -9°C° 0.5 mm 2 mps 617 mmHg 87%
    20:00 -9°C° 0.6 mm 2 mps 617 mmHg 88%
    21:00 -9°C° 0.6 mm 2 mps 617 mmHg 89%
    22:00 -9°C° 0.6 mm 2 mps 617 mmHg 89%
    23:00 -9°C° 0.4 mm 2 mps 616 mmHg 89%

    26 February, Monday

    Time Temperature Precipitation Wind Pressure Humidity
    00:00 -10°C° 0.4 mm 2 mps 616 mmHg 90%
    01:00 -10°C° 0.4 mm 2 mps 616 mmHg 90%
    02:00 -10°C° 0.3 mm 2 mps 615 mmHg 90%
    03:00 -10°C° 0.3 mm 2 mps 615 mmHg 90%
    04:00 -10°C° 0.3 mm 2 mps 614 mmHg 89%
    05:00 -10°C° 0.5 mm 2 mps 614 mmHg 89%
    06:00 -10°C° 0.5 mm 2 mps 614 mmHg 89%
    07:00 -10°C° 0.5 mm 2 mps 614 mmHg 89%
    08:00 -10°C° 0.5 mm 3 mps 614 mmHg 88%
    09:00 -10°C° 0.5 mm 3 mps 614 mmHg 88%
    10:00 -10°C° 0.5 mm 3 mps 614 mmHg 87%
    11:00 -10°C° 0.3 mm 3 mps 614 mmHg 87%
    12:00 -9°C° 0.3 mm 3 mps 614 mmHg 87%
    13:00 -9°C° 0.3 mm 3 mps 613 mmHg 86%
    14:00 -8°C° 0.2 mm 2 mps 613 mmHg 87%
    15:00 -8°C° 0.2 mm 2 mps 613 mmHg 87%
    16:00 -8°C° 0.2 mm 2 mps 613 mmHg 87%
    17:00 -9°C° 0.4 mm 2 mps 613 mmHg 88%
    18:00 -9°C° 0.4 mm 2 mps 613 mmHg 90%
    19:00 -10°C° 0.4 mm 2 mps 613 mmHg 91%
    20:00 -9°C° 0.3 mm 1 mps 613 mmHg 91%
    21:00 -9°C° 0.3 mm 1 mps 613 mmHg 91%
    22:00 -9°C° 0.3 mm 1 mps 614 mmHg 91%
    23:00 -9°C° 0.1 mm 1 mps 613 mmHg 90%

    27 February, Tuesday

    Time Temperature Precipitation Wind Pressure Humidity
    00:00 -9°C° 0.1 mm 1 mps 613 mmHg 90%
    01:00 -9°C° 0.1 mm 1 mps 613 mmHg 90%
    02:00 -9°C° 0 mm 1 mps 613 mmHg 90%
    03:00 -9°C° 0 mm 1 mps 613 mmHg 90%
    04:00 -9°C° 0 mm 1 mps 613 mmHg 90%
    05:00 -9°C° 0 mm 1 mps 613 mmHg 89%
    06:00 -9°C° 0 mm 1 mps 613 mmHg 89%
    07:00 -8°C° 0 mm 1 mps 613 mmHg 89%
    08:00 -8°C° 0 mm 2 mps 614 mmHg 89%
    09:00 -6°C° 0 mm 2 mps 614 mmHg 89%
    10:00 -6°C° 0 mm 3 mps 615 mmHg 89%
    11:00 -5°C° 0.1 mm 3 mps 615 mmHg 89%
    12:00 -5°C° 0.1 mm 3 mps 615 mmHg 88%
    13:00 -5°C° 0.1 mm 3 mps 615 mmHg 87%
    14:00 -5°C° 0.1 mm 3 mps 615 mmHg 87%
    15:00 -5°C° 0.1 mm 3 mps 615 mmHg 87%
    16:00 -4°C° 0.1 mm 2 mps 615 mmHg 87%
    17:00 -5°C° 0.1 mm 2 mps 615 mmHg 88%
    18:00 -5°C° 0.1 mm 2 mps 615 mmHg 89%
    19:00 -6°C° 0.1 mm 2 mps 615 mmHg 90%
    20:00 -6°C° 0.1 mm 2 mps 615 mmHg 91%
    21:00 -6°C° 0.1 mm 2 mps 615 mmHg 91%
    22:00 -6°C° 0.1 mm 2 mps 616 mmHg 92%
    23:00 -6°C° 0.4 mm 2 mps 616 mmHg 92%

    28 February, Wednesday

    Time Temperature Precipitation Wind Pressure Humidity
    00:00 -6°C° 0.4 mm 2 mps 615 mmHg 93%
    01:00 -6°C° 0.4 mm 2 mps 615 mmHg 94%
    02:00 -6°C° 0.5 mm 2 mps 615 mmHg 94%
    03:00 -7°C° 0.5 mm 2 mps 616 mmHg 94%
    04:00 -7°C° 0.5 mm 2 mps 616 mmHg 94%
    05:00 -7°C° 0.2 mm 2 mps 616 mmHg 93%
    06:00 -7°C° 0.2 mm 2 mps 616 mmHg 92%
    07:00 -7°C° 0.2 mm 2 mps 617 mmHg 91%
    08:00 -6°C° 0.1 mm 2 mps 617 mmHg 90%
    09:00 -4°C° 0.1 mm 1 mps 617 mmHg 89%
    10:00 -3°C° 0.1 mm 1 mps 618 mmHg 88%
    11:00 -2°C° 0.1 mm 1 mps 618 mmHg 87%
    12:00 -2°C° 0.1 mm 1 mps 618 mmHg 86%
    13:00 -1°C° 0.1 mm 1 mps 618 mmHg 85%
    14:00 -1°C° 0 mm 1 mps 618 mmHg 85%
    15:00 -1°C° 0 mm 1 mps 618 mmHg 85%
    16:00 -3°C° 0 mm 2 mps 618 mmHg 85%
    17:00 -4°C° 0.1 mm 2 mps 618 mmHg 87%
    18:00 -5°C° 0.1 mm 2 mps 618 mmHg 88%
    19:00 -6°C° 0.1 mm 2 mps 618 mmHg 89%
    20:00 -6°C° 0 mm 1 mps 619 mmHg 89%
    21:00 -6°C° 0 mm 1 mps 619 mmHg 89%
    22:00 -7°C° 0 mm 1 mps 619 mmHg 89%
    23:00 -7°C° 0 mm 1 mps 619 mmHg 88%
    Show more